Regional Weather Roundup
Issued by NWS

Home | Current Version | Previous Version | Graphics & Text | Print | Product List | Glossary On
Versions: 1 2 3 4 5 6 7 8 9 10 11 12 13 14 15 16 17 18 19 20 21 22 23 24 25 26 27 28 29 30 31 32 33 34 35 36 37 38 39 40 41 42 43 44 45 46 47 48 49 50
000
ASUS43 KMKX 241800
RWRWI

WISCONSIN REGIONAL WEATHER ROUNDUP
NATIONAL WEATHER SERVICE MILWAUKEE/SULLIVAN WI
100 PM CDT FRI OCT 24 2014

NOTE: "FAIR" INDICATES FEW OR NO CLOUDS BELOW 12,000 FEET WITH NO
SIGNIFICANT WEATHER AND/OR OBSTRUCTIONS TO VISIBILITY.

WIZ001-002-006>008-014>016-023>028-241900-
NORTHWEST WISCONSIN

CITY           SKY/WX    TMP DP  RH WIND       PRES   REMARKS
SUPERIOR ARPT  SUNNY     66  51  57 SW10      29.81F
ASHLAND        SUNNY     67  47  48 SW13      29.83F
6HR MIN TEMP:  44; 6HR MAX TEMP:  68;

HAYWARD        SUNNY     61  49  64 S12       29.86F
6HR MIN TEMP:  48; 6HR MAX TEMP:  62;

SIREN          SUNNY     64  50  60 S10G17    29.84F
CUMBERLAND     MOSUNNY   61  48  63 S9        29.87F
RICE LAKE      PTSUNNY   58  49  70 SE12      29.89F
CHETEK         PTSUNNY   57  51  80 E6        29.89F
LADYSMITH      MOSUNNY   55  50  82 S9        29.92F
EAU CLAIRE     NOT AVBL
MENOMONIE      PTSUNNY   60  51  70 SE7       29.89F
NEW RICHMOND   CLOUDY    60  53  76 S13       29.87F
OSCEOLA        SUNNY     63  54  73 S13       29.89F
$$

WIZ003>005-009-010-017-018-241900-
NORTH CENTRAL WISCONSIN

CITY           SKY/WX    TMP DP  RH WIND       PRES   REMARKS
MANITOWISH WTR MOSUNNY   51  48  88 S8        29.90F
ARBOR VITAE    MOSUNNY   52  49  89 S6        29.91F
WOODRUFF       MOSUNNY   52  49  89 S6        29.91F
RHINELANDER    MOSUNNY   52  46  80 S7        29.92F
6HR MIN TEMP:  42; 6HR MAX TEMP:  52;

EAGLE RIVER    MOSUNNY   52  48  86 SW8       29.92F
LAND O LAKES   MOSUNNY   57  47  69 SW8       29.91F
PHILLIPS       SUNNY     56  48  75 S8        29.90F
TOMAHAWK       CLOUDY    49  48  97 CALM      29.94F
MEDFORD        CLOUDY    48  48  99 S9        29.94F
MERRILL        CLOUDY    48  47  99 S6        29.95F
$$

WIZ029-030-035-036-043>047-241900-
CENTRAL WISCONSIN

CITY           SKY/WX    TMP DP  RH WIND       PRES   REMARKS
WAUSAU         CLOUDY    48  47  96 S8        29.94F FOG
6HR MIN TEMP:  44; 6HR MAX TEMP:  48;

MOSINEE        CLOUDY    46  46 100 MISG      29.97F FOG
MARSHFIELD     CLOUDY    50  49  96 S8        29.94F
6HR MIN TEMP:  45; 6HR MAX TEMP:  50;

STEVENS POINT  CLOUDY    47  47  99 SW6       29.98F
WAUPACA        CLOUDY    52  51  95 S6        30.00F
WAUTOMA        NOT AVBL
WISC RAPIDS    CLOUDY    50  48  93 S5        29.98F
6HR MIN TEMP:  46; 6HR MAX TEMP:  50;

CAMP DOUGLAS   NOT AVBL
$$

WIZ011>013-019>022-031-037>040-048>050-241900-
NORTHEAST WISCONSIN

CITY           SKY/WX    TMP DP  RH WIND       PRES   REMARKS
ANTIGO         CLOUDY    48  48 100 S3        29.96F FOG
SHAWANO        CLOUDY    50  49  93 SW7       29.99F
OCONTO         CLOUDY    50  48  95 SW6       29.97F
STURGEON BAY   CLOUDY    52  46  82 SW6       29.97F
6HR MIN TEMP:  48; 6HR MAX TEMP:  52;

GREEN BAY      CLOUDY    51  48  89 SW7       29.98F FOG
6HR MIN TEMP:  48; 6HR MAX TEMP:  51;

MANITOWOC      NOT AVBL
APPLETON         N/A     48  48 100 SW10      29.99F FOG
CLINTONVILLE   CLOUDY    50  46  87 SW7       29.99F
OSHKOSH        CLOUDY    52  50  93 S8        29.99F
6HR MIN TEMP:  48; 6HR MAX TEMP:  52;

$$

WIZ032>034-041-042-053>061-241900-
SOUTHWEST WISCONSIN

CITY           SKY/WX    TMP DP  RH WIND       PRES   REMARKS
LA CROSSE      CLOUDY    62  53  72 S10       29.91F
6HR MIN TEMP:  51; 6HR MAX TEMP:  62;

SPARTA         SUNNY     61  49  63 S7        29.96F
VIROQUA        PTSUNNY   55  55 100 S12       29.96F
BOSCOBEL       MOSUNNY   62  53  72 S8        29.98F
6HR MIN TEMP:  51; 6HR MAX TEMP:  62;

PRAIRIE DU CHI MOSUNNY   62  53  70 SE3       29.96F
PLATTEVILLE    CLOUDY    54  54  97 S10       30.02F
$$

WIZ056-057-062-063-064-067-068-241900-
SOUTH CENTRAL WISCONSIN

CITY           SKY/WX    TMP DP  RH WIND       PRES   REMARKS
REEDSBURG      CLOUDY    53  50  92 S9        29.99F
BARABOO/DELLS  PTSUNNY   55  50  82 S7        30.00F
LONE ROCK      NOT AVBL
MINERAL POINT  CLOUDY    55  54  94 S9        30.01F FOG
MADISON        CLOUDY    54  50  86 S9        30.01F
6HR MIN TEMP:  49; 6HR MAX TEMP:  54;

MIDDLETON      CLOUDY    56  53  92 SW6       30.02F
WATERTOWN      CLOUDY    52  51  99 SW8       30.01F
MONROE         CLOUDY    52  52 100 SW9       30.02F FOG
JANESVILLE     CLOUDY    54  52  94 S8        30.01F FOG
$$

WIZ051-052-058>065-066-070>072-241900-
SOUTHEAST WISCONSIN

CITY           SKY/WX    TMP DP  RH WIND       PRES   REMARKS
MILWAUKEE      PTSUNNY   55  49  80 SW7       30.02F
6HR MIN TEMP:  50; 6HR MAX TEMP:  55;

WAUKESHA       CLOUDY    52  48  87 SW7       30.03F
MILWAUKEE/TIMM MOSUNNY   55  48  76 SW6       30.02F
RACINE         CLOUDY    54  49  83 W8        30.03F
6HR MIN TEMP:  50; 6HR MAX TEMP:  54;

BURLINGTON     CLOUDY    52  50  93 S6        30.02F
KENOSHA        CLOUDY    53  51  93 W9        30.02F FOG
6HR MIN TEMP:  50; 6HR MAX TEMP:  54;

FOND DU LAC    CLOUDY    52  48  86 SW6       30.00F
6HR MIN TEMP:  48; 6HR MAX TEMP:  52;

SHEBOYGAN      PTSUNNY   55  48  77 SW7       29.99F
6HR MIN TEMP:  48; 6HR MAX TEMP:  55;

WEST BEND      MOSUNNY   54  46  76 SW3       30.01F
JUNEAU         CLOUDY    51  49  95 S7        30.02F FOG
$$

LSZ147-162-241900-
LAKE SUPERIOR

STATION/POSITION TIME  TEMP    WIND        PRES    WAVE
                       AIR SEA DIR/SP/G            HT/PER
                 (UTC) (F)     (DEG/KT/KT) (MB)    (FT/S)
W MID LAKE BUOY  1650   48 46  190/  8/  8 1010.9F   1/ 3
DEVILS ISLAND    1700   53     320/  2/  3 1010.7F
PORT WING        1740   53     350/  3/  4 1009.8F
SAXON HARBOR     1700   64     180/  9/ 15 1010.8
$$

LMZ867-665-643>646-241900-
LAKE MICHIGAN

STATION/POSITION TIME  TEMP    WIND        PRES    WAVE
                       AIR SEA DIR/SP/G            HT/PER
                 (UTC) (F)     (DEG/KT/KT) (MB)    (FT/S)
CHAMBERS ISLAND  1700   48     200/  4/  9 1015.2F
N MID LAKE BUOY  1650   50 51  230/ 12/ 14 1015.4F   1/ 5
NORTHPORT PIER   1700   50     240/  5/ 10 1015.2F
ALGOMA LAKESHORE 1641          240/  9/ 10   N/A
KEWAUNEE LAKESHO 1700   51     240/  4/  7 1015.0F
SHEBOYGAN LAKESH 1700   51 50  190/  5/  6 1016.8F
PORT WASHINGTON  1740   52     150/  6/  7 1016.6F
ATWATER BUOY     1700   51     150/  4/  4 1017.9F
MILWAUKEE LAKESH 1700   51     160/  3/  4   N/A
S MID LAKE BUOY  1650   52 54  240/  8/ 10 1017.5F   1
KENOSHA   LAKESH 1700   52     270/  4/  7 1016.9F
$$

TC  - TEMPERATURE IN CELSIUS
VSB - VISIBILITY IN STATUTE MILES
WCI - WIND CHILL INDEX
HX  - HEAT INDEX




USA.gov is the U.S. government's official web portal to all federal, state and local government web resources and services.